Location: Muck Cross
(36.7179°N, 78.3678°W)
Time: 21:34:57
(UTC+00:00)

Transit 2A Rocket - Visible Passes

Search period start: 21 March 2023 00:00
Search period end: 31 March 2023 00:00
Orbit: 583 x 916 km, 66.7° (Epoch: 21 March)

Date Brightness Start Highest point End Pass type
(mag) Time Alt. Az. Time Alt. Az. Time Alt. Az.
21 Mar 6.8 01:34:11 10° N 01:38:04 24° NE 01:38:04 24° NE visible
21 Mar 7.6 03:16:09 10° NW 03:17:57 20° NW 03:17:57 20° NW visible
22 Mar 7.0 00:51:48 10° N 00:55:26 16° NE 00:56:19 15° NE visible
22 Mar 6.6 02:32:48 10° NNW 02:36:11 35° NNW 02:36:11 35° NNW visible
23 Mar 7.4 00:11:26 10° NE 00:11:35 10° NE 00:11:44 10° NE visible
23 Mar 5.9 01:49:42 10° NNW 01:54:28 45° NNE 01:54:28 45° NNE visible
23 Mar 7.9 03:33:15 10° NW 03:34:21 14° WNW 03:34:21 14° WNW visible
24 Mar 6.1 01:06:48 10° N 01:12:12 32° NE 01:12:49 31° ENE visible
24 Mar 6.9 02:49:16 10° NW 02:52:42 29° WNW 02:52:42 29° WNW visible
25 Mar 6.8 00:24:10 10° N 00:28:35 20° NE 00:31:13 16° E visible
25 Mar 5.6 02:05:46 10° NNW 02:11:06 63° WNW 02:11:06 63° WNW visible
26 Mar 5.2 01:22:30 10° NNW 01:28:35 70° ENE 01:29:34 58° ESE visible
26 Mar 7.6 03:06:58 10° WNW 03:09:28 15° W 03:09:28 15° W visible
27 Mar 5.8 00:39:28 10° NNW 00:45:13 42° NE 00:48:07 25° ESE visible
27 Mar 6.7 02:22:31 10° NW 02:27:34 29° WSW 02:28:01 28° WSW visible
27 Mar 6.4 23:56:40 10° N 00:01:42 26° NE 00:06:31 10° ESE visible
28 Mar 5.9 01:38:46 10° NW 01:44:36 51° WSW 01:46:39 35° SSW visible
29 Mar 5.2 00:55:22 10° NNW 01:01:28 87° WSW 01:05:23 21° SSE visible
29 Mar 7.9 02:41:44 10° W 02:43:01 11° W 02:44:18 10° WSW visible
30 Mar 5.5 00:12:12 10° NNW 00:18:10 56° ENE 00:23:47 10° SE visible
30 Mar 7.4 01:55:58 10° WNW 02:00:14 21° WSW 02:04:08 11° SSW visible
